Regional Weather Roundup
Issued by NWS

Home | Current Version | Previous Version | Graphics & Text | Print | Product List | Glossary On
Versions: 1 2 3 4 5 6 7 8 9 10 11 12 13 14 15 16 17 18 19 20 21 22 23 24 25 26 27 28 29 30 31 32 33 34 35 36 37 38 39 40 41 42 43 44 45 46 47 48 49 50
000
ASUS43 KFSD 021802
RWRSD

WEATHER ROUNDUP FOR SOUTH DAKOTA
NATIONAL WEATHER SERVICE SIOUX FALLS SD
1200 PM CST FRI DEC 02 2016

NOTE: "FAIR" INDICATES FEW OR NO CLOUDS BELOW 12,000 FEET WITH NO
SIGNIFICANT WEATHER AND/OR OBSTRUCTIONS TO VISIBILITY.


SDZ001>005-009-010-012>017-021900-
NORTHWEST AND NORTH CENTRAL SOUTH DAKOTA

CITY           SKY/WX    TMP DP  RH WIND       PRES   REMARKS
BUFFALO          N/A     30  26  85 NW7       30.11F WCI  23
FAITH            N/A     27  25  92 S7        30.21R WCI  19
MOBRIDGE       CLOUDY    29  23  78 E7        30.23S WCI  22
$$

SDZ012>016-024>037-041>051-057-063-072>074-021900-
SOUTHWEST AND SOUTH CENTRAL SOUTH DAKOTA

CITY           SKY/WX    TMP DP  RH WIND       PRES   REMARKS
RAPID CTY ARPT CLOUDY    36  24  62 N12       30.19S
PIERRE         CLOUDY    30  26  85 E3        30.25F
CUSTER         CLOUDY    33  14  45 CALM      30.13S
ELLSWORTH AFB  CLOUDY    34  25  68 N6        30.19R WCI  29
PHILIP         CLOUDY    29  25  85 CALM      30.23F
PINE RIDGE     SUNNY     31  25  78 CALM      30.21R
SPEARFISH      FAIR      32  23  69 W9        30.19F WCI  24
WINNER         MOCLDY    32  25  75 NW3       30.25F
$$

SDZ004>011-016>023-039-040-021900-
NORTHEAST SOUTH DAKOTA

CITY           SKY/WX    TMP DP  RH WIND       PRES   REMARKS
ABERDEEN       CLOUDY    29  21  72 NW6       30.27F WCI  23
WATERTOWN      CLOUDY    26  21  81 N7        30.24R WCI  18
SISSETON         N/A     28  21  75 N10       30.26F WCI  19
$$

SDZ017-020-022-023-036>040-048>070-021900-
SOUTHEAST SOUTH DAKOTA

CITY           SKY/WX    TMP DP  RH WIND       PRES   REMARKS
SIOUX FALLS    CLOUDY    33  27  78 NW5       30.26S WCI  29
HURON          CLOUDY    30  26  85 N10       30.28S WCI  21
CHAMBERLAIN    CLOUDY    32  31  94 NE6       30.26S WCI  26
MITCHELL       CLOUDY    33  28  81 N6        30.29S WCI  28
YANKTON        CLOUDY    36  28  75 NW9       30.28S
$$

ABBREVIATIONS USED IN REMARKS
   TC - TEMPERATURE IN CELSIUS
  WCI - WIND CHILL INDEX
   HX - HEAT INDEX
  VSB - VISIBILITY





USA.gov is the U.S. government's official web portal to all federal, state and local government web resources and services.